SCP
0 0 0 0 0 0 0 0 0 0 0 0 1 1 1 1 1 1 1 2 5 6 6 4 2 2 2 3 3 3 2 3 3 3 2 2 2 2 2 3 4 4 3 2
0 0 0 0 0 0 0 0 0 0 0 1 1 1 1 1 1 1 1 3 6 7 6 4 3 2 3 3 3 3 3 3 3 3 2 2 2 2 3 4 6 5 3 3
0 0 0 0 0 0 0 0 0 0 1 1 1 1 1 1 1 1 1 3 6 7 5 3 3 3 3 3 3 3 3 3 3 3 2 2 2 3 4 6 7 6 4 3
0 0 0 0 0 0 0 0 0 0 0 1 1 1 1 1 1 2 2 5 8 8 5 3 3 4 4 4 4 4 4 4 3 3 2 2 3 4 6 7 8 6 5 4
0 0 0 0 0 0 0 0 0 0 0 1 1 1 2 2 2 2 4 7 9 8 5 3 3 4 5 5 5 5 6 5 4 3 3 3 3 5 6 7 8 7 6 5
0 0 0 0 0 0 0 0 0 0 1 1 1 1 2 2 2 3 6 10 11 7 4 3 3 3 5 7 7 7 8 8 6 5 4 3 3 4 5 7 9 9 7 6
0 0 0 0 0 0 0 0 0 0 1 1 1 1 1 2 2 4 8 11 10 6 3 3 4 4 6 8 10 10 10 10 8 6 5 4 4 4 4 6 9 10 8 7
0 0 0 0 0 0 0 0 0 0 0 1 1 1 1 1 2 4 8 9 8 4 2 3 4 5 7 9 12 13 13 13 10 8 6 6 5 5 4 6 9 9 8 7
0 0 0 0 0 0 0 0 0 0 0 0 1 1 1 2 2 4 6 7 5 3 2 2 3 4 6 9 12 14 15 14 12 9 8 7 7 6 5 5 7 7 7 7
0 0 0 0 0 1 1 0 0 0 0 0 1 1 2 2 2 4 5 5 4 3 2 2 2 3 4 7 12 14 15 15 13 10 8 8 8 7 6 6 6 6 7 8
0 0 0 0 1 1 1 1 0 0 0 0 1 1 2 2 3 4 5 5 3 3 2 2 2 3 3 6 9 12 14 15 14 11 8 8 8 8 7 7 7 7 8 9
0 0 0 0 1 1 2 1 1 0 0 0 1 1 2 3 3 3 5 4 3 2 2 3 3 3 3 4 6 9 12 13 13 10 8 8 8 9 9 9 9 10 11 10
0 0 0 0 1 1 1 1 1 1 1 0 1 2 3 4 4 3 4 3 3 3 3 3 4 4 4 4 5 7 9 10 10 9 8 8 8 9 9 9 11 12 12 11
0 0 0 0 0 1 1 1 1 1 1 1 1 2 4 5 5 4 4 4 3 4 4 5 5 6 6 5 5 6 7 7 8 9 9 9 9 10 10 10 12 14 12 10
0 0 0 0 0 0 1 1 1 1 1 1 1 2 4 5 6 5 5 5 4 4 5 6 7 8 8 8 7 7 6 6 7 9 9 10 12 13 13 13 14 14 11 9
0 0 0 0 0 0 0 0 1 1 1 1 1 2 3 5 7 7 6 5 5 5 6 6 8 9 10 10 9 8 6 6 7 8 9 11 14 16 16 16 15 13 11 10
1 1 0 0 0 0 0 0 1 1 1 1 1 2 4 7 9 9 7 6 5 5 6 7 8 10 11 11 10 8 7 7 7 8 10 12 15 17 18 16 14 13 12 12
1 1 1 0 0 0 0 0 1 1 2 2 2 2 4 7 10 9 7 5 4 4 5 8 10 11 11 11 11 9 8 8 9 10 11 12 14 16 16 16 15 15 15 15
1 1 1 1 1 0 0 0 0 1 2 3 3 3 3 6 9 9 6 5 4 3 4 8 12 13 12 12 11 10 9 9 10 10 10 11 12 12 13 15 18 19 19 18
1 1 1 1 1 1 1 1 1 1 3 3 4 4 4 6 8 8 7 5 3 2 3 6 11 14 13 12 12 12 10 10 10 9 9 10 10 8 9 15 21 24 22 21
1 1 1 1 1 1 2 2 1 2 4 5 5 5 6 6 7 8 8 6 4 3 2 5 10 14 13 12 13 13 11 9 10 20 26 19 8 6 7 14 24 28 25 21
1 1 1 2 2 2 3 3 3 4 6 7 6 6 6 6 7 8 8 5 3 3 2 4 10 14 14 13 13 12 10 9 10 27 42 25 7 6 6 13 24 29 24 18
2 2 3 3 3 5 6 6 5 5 5 5 5 5 6 6 7 8 7 5 4 3 3 4 10 17 18 15 13 11 10 9 10 20 25 18 7 6 8 14 23 25 19 13
3 4 4 4 4 6 9 8 6 4 3 3 3 4 6 6 6 6 6 5 4 4 4 5 11 18 19 16 13 11 10 10 10 9 9 7 7 7 9 13 18 18 13 9
5 5 5 4 4 6 9 8 5 3 2 2 3 4 4 4 4 4 5 5 5 5 6 7 11 15 17 15 13 11 9 9 10 10 9 8 7 7 8 10 12 10 8 6
5 5 4 3 3 4 7 8 4 2 2 3 4 4 4 4 3 3 4 4 5 5 5 7 9 13 15 15 13 10 8 9 10 10 10 8 7 7 8 9 8 7 6 5
Wind_Speed
9 8 5 3 2 3 3 1 2 2 3 4 5 7 9 8 8 8 8 9 9 9 9 9 7 8 7 6 5 4 3 2 1 1 0 0 1 1 1 2 2 3 2 2
7 7 6 4 4 3 4 0 2 2 2 2 4 7 9 8 8 7 7 8 9 10 10 9 8 7 7 6 5 4 3 3 2 1 1 1 1 1 2 2 3 3 2 2
8 5 4 5 4 3 5 2 1 1 2 3 4 5 7 9 8 8 8 8 9 11 11 10 9 8 8 7 6 5 4 3 2 1 1 0 1 0 1 2 2 2 2 2
8 6 5 6 5 4 5 2 4 5 3 3 2 2 5 7 7 7 8 8 9 10 11 10 9 8 8 8 7 5 5 3 2 2 1 1 1 1 1 2 2 2 2 2
7 6 6 7 6 5 5 5 4 4 4 2 3 2 4 5 6 6 7 8 9 9 10 10 10 9 8 8 8 7 6 4 3 2 2 1 1 1 1 2 2 2 2 2
10 6 6 7 7 5 7 7 5 4 5 4 4 3 4 4 5 7 8 8 8 8 9 9 9 8 8 8 7 7 7 5 4 3 3 2 2 1 0 1 2 2 2 2
10 8 6 5 6 4 6 6 4 3 4 4 5 2 4 7 6 6 8 8 8 8 8 9 9 9 7 7 7 7 7 5 5 4 3 3 2 2 2 1 1 2 2 2
9 8 8 6 7 5 7 8 6 5 3 2 1 3 5 8 7 7 8 8 8 8 7 8 8 8 8 7 6 6 7 5 5 4 3 3 3 2 2 3 2 2 2 2
6 6 7 7 7 8 7 9 9 7 6 3 1 3 5 7 7 7 9 9 7 7 7 8 9 9 9 8 7 6 6 5 5 4 4 3 4 3 2 2 2 1 1 2
8 6 6 7 7 9 8 8 6 4 3 4 2 2 1 4 6 7 8 7 6 5 5 7 7 8 8 8 8 7 7 6 4 4 4 4 4 3 3 2 2 2 2 2
8 8 7 8 8 8 7 8 7 5 4 5 1 1 4 4 4 6 8 6 6 5 5 5 5 6 7 7 7 7 7 6 5 4 3 2 3 3 3 2 2 2 2 3
6 8 8 9 8 8 8 9 9 6 4 5 4 1 4 4 5 6 7 7 6 5 5 5 5 5 4 5 5 5 5 6 5 4 4 3 2 3 3 3 3 3 3 3
4 6 7 8 8 7 7 9 9 8 7 6 4 2 3 3 5 6 7 7 6 5 5 5 5 4 3 3 3 3 4 4 5 5 4 4 3 3 3 3 3 3 3 3
5 8 10 10 7 6 8 10 10 9 7 6 4 4 4 3 5 5 6 6 5 5 5 4 4 4 2 2 3 3 3 3 4 4 4 4 3 3 3 3 3 3 3 3
6 9 11 13 12 10 9 9 10 10 7 6 5 2 2 2 4 5 5 4 4 4 4 3 3 3 2 2 3 3 2 2 2 3 3 3 3 3 3 3 3 3 3 3
6 8 10 13 13 11 11 10 9 8 7 5 4 1 3 4 4 5 5 5 5 4 3 2 2 2 2 1 2 3 3 2 2 3 3 3 3 3 3 3 3 3 3 3
7 7 10 11 11 11 12 9 9 6 6 5 4 1 3 3 4 5 5 5 4 3 3 3 1 1 1 1 1 3 3 3 3 2 2 3 3 3 3 3 3 3 3 3
7 7 7 10 11 13 8 6 6 6 4 1 1 0 0 3 4 5 6 5 5 4 3 3 2 1 0 1 1 2 2 2 2 2 2 2 2 3 3 3 3 3 3 3
7 6 8 9 11 12 8 6 5 4 2 1 1 1 3 2 4 5 6 5 4 4 4 3 3 3 2 2 1 2 2 2 2 2 2 2 2 2 3 3 3 2 2 3
9 7 8 9 11 10 5 4 4 5 3 2 3 3 3 3 1 2 4 5 4 4 4 4 4 3 2 2 1 2 3 3 3 3 3 3 3 3 3 3 3 3 3 3
9 9 11 11 12 6 4 5 4 5 1 5 4 4 2 3 3 2 3 4 3 3 3 4 4 3 3 2 2 0 1 1 2 3 3 3 3 3 3 3 3 3 4 4
8 8 9 9 11 5 5 3 3 4 4 5 5 4 4 4 4 3 3 3 3 3 3 4 3 3 3 2 1 1 1 1 1 1 2 3 3 3 3 3 4 4 5 5
6 4 3 4 2 2 6 6 6 5 5 5 5 4 4 4 3 3 3 2 2 3 3 3 3 2 2 2 1 2 1 1 1 1 2 3 3 3 3 4 5 4 4 4
3 2 3 3 3 2 4 4 5 5 5 5 6 5 5 5 4 4 3 2 3 3 3 3 3 3 2 3 2 2 2 1 1 2 3 3 3 3 3 3 4 4 4 4
5 4 5 5 4 2 1 3 4 5 5 6 6 5 5 4 4 4 3 2 2 3 4 3 3 3 3 2 2 2 2 2 2 2 3 4 4 4 3 3 3 4 3 3
5 5 5 4 3 3 2 2 4 4 5 5 5 6 5 5 5 4 4 3 3 3 3 3 3 4 4 3 2 2 2 2 2 3 3 3 3 3 3 4 3 3 3 4
Wind_Direction
234 238 251 256 244 274 297 67 77 110 167 147 141 145 151 159 158 152 154 154 156 151 149 145 146 142 138 132 129 122 121 108 88 78 126 160 137 157 127 122 123 118 114 110
234 242 255 261 271 278 295 -0 139 148 186 159 156 147 147 158 164 157 157 159 158 154 154 152 156 154 145 138 137 139 137 127 123 120 236 186 137 162 125 108 117 114 122 122
242 244 247 258 268 282 283 308 316 215 207 198 165 149 152 160 155 159 164 163 160 161 161 161 164 163 154 152 153 156 146 144 144 161 194 156 146 90 89 113 118 122 128 126
244 253 248 257 252 259 270 263 246 249 243 222 179 156 171 162 155 167 169 166 165 164 161 163 166 168 165 160 158 149 146 149 155 184 209 179 144 137 134 129 134 144 148 142
244 235 245 256 262 264 275 272 260 279 288 270 204 190 159 156 162 175 176 166 161 160 158 163 167 169 170 165 162 155 149 156 165 189 194 198 157 169 119 116 139 147 150 156
250 231 242 262 263 267 286 280 260 271 269 252 212 184 146 149 185 173 164 159 160 159 157 160 161 161 166 164 159 157 154 163 173 187 191 188 188 184 158 139 153 158 146 146
237 225 222 248 263 257 283 282 269 260 236 238 206 154 129 144 160 146 145 152 155 158 159 160 160 162 161 163 164 155 152 167 175 183 192 187 197 194 189 196 192 176 152 142
238 220 210 218 250 265 263 267 276 287 279 265 312 97 115 129 128 129 134 138 143 150 151 156 156 156 161 165 160 151 151 164 175 182 189 188 196 207 193 199 206 190 157 151
265 245 208 206 233 251 261 268 280 282 293 303 4 113 118 117 129 132 122 126 139 143 148 153 158 161 163 165 161 157 151 161 173 183 184 191 196 207 206 182 203 181 136 146
271 271 249 217 225 236 252 282 290 290 309 275 194 175 147 138 136 126 119 122 123 132 141 147 155 160 162 165 163 160 154 162 174 182 192 192 190 194 201 189 191 173 140 122
266 268 252 233 229 241 239 260 275 291 283 293 313 112 144 147 127 122 118 116 120 129 126 119 130 146 154 158 160 158 153 161 172 180 186 189 170 181 190 189 183 167 144 146
254 265 257 249 236 242 249 259 261 266 272 279 286 144 117 136 130 117 112 117 115 110 110 115 115 123 141 158 159 158 160 167 171 174 170 167 170 172 183 181 176 157 151 163
283 275 260 246 227 221 247 259 264 271 276 271 266 145 129 116 102 104 107 106 108 115 114 112 114 116 130 145 148 153 160 176 179 173 172 165 174 181 188 185 168 157 162 170
260 261 265 263 269 263 242 250 264 268 272 278 273 169 157 115 103 91 96 101 106 106 101 107 112 114 120 134 147 164 175 179 179 164 171 167 176 181 184 178 168 163 169 173
251 260 268 272 273 272 266 255 255 261 272 277 283 252 143 109 94 90 83 84 88 93 94 93 104 108 122 130 157 167 170 179 170 157 169 165 168 167 168 171 168 167 175 175
240 270 274 269 268 264 268 264 265 267 270 268 260 283 76 75 92 98 84 73 66 60 54 64 75 107 139 164 169 172 179 179 165 168 176 165 168 170 180 180 181 179 178 171
236 255 269 268 269 263 252 254 260 265 276 274 269 123 93 82 71 90 85 73 59 50 38 31 44 114 143 176 161 168 174 174 171 171 175 167 173 179 191 197 184 184 185 179
240 252 257 265 268 257 256 268 267 258 269 303 353 157 163 123 104 94 77 66 53 45 38 23 2 360 314 311 169 155 158 167 169 168 176 173 177 186 196 201 194 193 188 191
230 238 255 259 257 256 257 253 253 248 255 14 350 33 6 80 102 99 80 66 56 42 31 20 354 352 9 331 299 144 172 173 186 198 188 180 185 193 202 207 203 204 201 208
228 219 240 255 260 263 277 292 284 262 227 35 52 50 2 320 224 96 72 57 53 39 20 6 359 6 8 350 346 170 184 188 204 209 197 186 192 198 208 213 206 210 209 218
224 220 229 246 256 261 310 317 294 258 36 34 40 51 34 0 16 65 65 53 45 29 12 4 4 7 4 350 3 336 205 218 229 206 193 190 199 213 214 206 204 211 219 224
235 235 233 245 252 257 350 337 10 34 35 29 27 37 30 15 13 47 50 37 30 7 359 356 3 358 358 357 353 299 286 306 315 241 208 202 204 230 230 216 222 221 223 226
239 260 273 281 272 46 44 50 51 36 24 14 12 13 12 355 351 14 14 18 1 350 354 348 343 345 341 344 327 300 308 307 284 248 231 235 222 221 233 226 226 224 224 232
230 266 280 287 286 7 47 55 39 22 7 358 359 355 354 352 345 343 349 355 345 348 337 329 323 325 330 324 316 301 296 277 246 245 227 232 236 236 233 229 229 226 227 228
291 261 256 255 260 289 355 8 2 352 344 351 353 345 340 332 320 322 332 344 342 338 332 331 329 323 313 310 320 304 289 277 268 259 243 237 235 232 226 226 235 240 240 234
291 284 260 260 277 289 310 347 336 329 330 339 336 327 323 319 315 315 312 317 314 315 319 315 312 311 310 310 312 313 301 296 285 282 264 252 252 246 243 237 242 252 249 236